Weather History for Palma De Mallorca / Son San Juan, Spain

Change the Weather History Date:

Sunday, July 28, 2013

  Actual Average Record
Temperature  
Mean Temperature 80 °F -  
Max Temperature 91 °F 86 °F - ()
Min Temperature 70 °F 66 °F - ()
Cooling Degree Days 16    
Growing Degree Days 30 (Base 50)    
Moisture  
Dew Point 73 °F    
Average Humidity 74    
Maximum Humidity 94    
Minimum Humidity 50    
Precipitation  
Precipitation 0.00 in 0.03 in - ()
Sea Level Pressure  
Sea Level Pressure 29.89 in    
Wind  
Wind Speed 6 mph ()    
Max Wind Speed 21 mph    
Max Gust Speed -    
Visibility 6.0 miles    
Events      
T = Trace of Precipitation, MM = Missing Value Source: Averaged Metar Reports

Daily Weather History Graph

Daily Weather History Graph

Search for Another Location

Airport:

Trip Planner

Search our weather history database for the weather conditions in past years. The results will help you decide how hot, cold, wet, or windy it might be!

Date:

Astronomy

Jul. 28, 2013 Rise Set
Actual Time 6:44 AM CEST 9:05 PM CEST
Civil Twilight 6:14 AM CEST 9:36 PM CEST
Nautical Twilight 5:36 AM CEST 10:13 PM CEST
Astronomical Twilight 4:55 AM CEST 10:54 PM CEST
Moon No Moon Rise 1:09 PM CEST (7/28)
Length of Visible Light 15h 21m
Length of Day
14h 20m
Waning Gibbous, 63% of the Moon is Illuminated
Jul 28
Waning Gibbous
Jul 29
Last Quarter
Aug 6
New
Aug 14
First Quarter
Aug 21
Full

Hourly Weather History & Observations

Time (CEST) Temp. Heat Index Dew Point Humidity Pressure Visibility Wind Dir Wind Speed Gust Speed Precip Events Conditions
12:00 AM 82.4 °F 90.9 °F 77.0 °F 84% 29.83 in 5.0 mi SSW 3.5 mph - N/A   Partly Cloudy
12:30 AM 80.6 °F 87.1 °F 77.0 °F 89% 29.83 in 5.0 mi South 2.3 mph - N/A   Partly Cloudy
1:00 AM 80.6 °F 87.1 °F 77.0 °F 89% 29.86 in 5.0 mi South 1.2 mph - N/A   Partly Cloudy
1:30 AM 80.6 °F 87.1 °F 77.0 °F 89% 29.86 in 5.0 mi SW 4.6 mph - N/A   Scattered Clouds
2:00 AM 80 °F - 76 °F 83% 29.86 in 5 mi SW 6.9 mph - -   Mist
2:00 AM 80.6 °F 86.2 °F 75.2 °F 84% 29.86 in 5.0 mi SW 3.5 mph - N/A   Scattered Clouds
2:30 AM 80.6 °F 86.2 °F 75.2 °F 84% 29.86 in 5.0 mi Calm Calm - N/A   Partly Cloudy
3:00 AM 78.8 °F - 73.4 °F 83% 29.83 in 5.0 mi SSE 2.3 mph - N/A   Partly Cloudy
3:30 AM 78.8 °F - 73.4 °F 83% 29.83 in 5.0 mi SSE 2.3 mph - N/A   Partly Cloudy
4:00 AM 75.2 °F - 73.4 °F 94% 29.83 in 5.6 mi East 1.2 mph - N/A   Partly Cloudy
4:30 AM 73.4 °F - 71.6 °F 94% 29.83 in 5.6 mi Calm Calm - N/A   Partly Cloudy
5:00 AM 73.4 °F - 71.6 °F 94% 29.83 in 5.6 mi Calm Calm - N/A   Partly Cloudy
5:30 AM 73.4 °F - 71.6 °F 94% 29.83 in 5.6 mi Calm Calm - N/A   Partly Cloudy
6:00 AM 71.6 °F - 69.8 °F 94% 29.83 in 5.6 mi Calm Calm - N/A   Partly Cloudy
6:30 AM 71.6 °F - 69.8 °F 94% 29.86 in 5.6 mi Calm Calm - N/A   Partly Cloudy
7:00 AM 71.6 °F - 69.8 °F 94% 29.86 in 5.6 mi Variable 1.2 mph - N/A   Scattered Clouds
7:30 AM 73.4 °F - 71.6 °F 94% 29.86 in 5.0 mi Calm Calm - N/A   Scattered Clouds
8:00 AM 81 °F - 74 °F 72% 29.88 in 5 mi SW 11.5 mph - -   Mist
8:00 AM 80.6 °F 86.2 °F 75.2 °F 84% 29.86 in 5.0 mi SW 8.1 mph - N/A   Scattered Clouds
8:30 AM 80.6 °F 86.2 °F 75.2 °F 84% 29.89 in 5.0 mi SW 10.4 mph - N/A   Scattered Clouds
9:00 AM 82.4 °F 89.5 °F 75.2 °F 79% 29.89 in 5.0 mi WSW 8.1 mph - N/A   Partly Cloudy
9:30 AM 84.2 °F 92.3 °F 75.2 °F 74% 29.89 in 5.0 mi West 8.1 mph - N/A   Partly Cloudy
10:00 AM 84.2 °F 90.9 °F 73.4 °F 70% 29.89 in 6.2 mi WSW 6.9 mph - N/A   Partly Cloudy
10:30 AM 86.0 °F 95.1 °F 75.2 °F 70% 29.89 in 6.2 mi WSW 13.8 mph - N/A   Partly Cloudy
11:00 AM 87.8 °F 97.6 °F 75.2 °F 66% 29.89 in 6.2 mi SW 12.7 mph - N/A   Partly Cloudy
11:30 AM 87.8 °F 95.6 °F 73.4 °F 62% 29.89 in - SW 12.7 mph - N/A   Clear
12:00 PM 87.8 °F 95.6 °F 73.4 °F 62% 29.89 in - SW 13.8 mph - N/A   Clear
12:30 PM 87.8 °F 97.6 °F 75.2 °F 66% 29.89 in - SW 16.1 mph - N/A   Clear
1:00 PM 89.6 °F 102.2 °F 77.0 °F 66% 29.89 in - SW 16.1 mph - N/A   Clear
1:30 PM 87.8 °F 97.6 °F 75.2 °F 66% 29.92 in 6.2 mi SW 18.4 mph - N/A   Partly Cloudy
2:00 PM 90 °F - 74 °F 50% 29.92 in 9 mi SW 20.7 mph - -   Scattered Clouds
2:00 PM 89.6 °F 99.8 °F 75.2 °F 62% 29.92 in 6.2 mi SW 18.4 mph - N/A   Partly Cloudy
2:30 PM 87.8 °F 95.6 °F 73.4 °F 62% 29.92 in 6.2 mi SW 15.0 mph - N/A   Partly Cloudy
3:00 PM 89.6 °F 98.2 °F 73.4 °F 59% 29.92 in 6.2 mi SW 15.0 mph - N/A   Partly Cloudy
3:30 PM 87.8 °F 95.6 °F 73.4 °F 62% 29.92 in 6.2 mi SW 13.8 mph - N/A   Partly Cloudy
4:00 PM 89.6 °F 98.2 °F 73.4 °F 59% 29.92 in 6.2 mi SW 12.7 mph - N/A   Partly Cloudy
4:30 PM 89.6 °F 96.2 °F 71.6 °F 55% 29.92 in 6.2 mi SW 15.0 mph - N/A   Partly Cloudy
5:00 PM 87.8 °F 93.8 °F 71.6 °F 58% 29.92 in 6.2 mi SW 13.8 mph - N/A   Partly Cloudy
5:30 PM 86.0 °F 93.4 °F 73.4 °F 66% 29.92 in 6.2 mi SW 12.7 mph - N/A   Partly Cloudy
6:00 PM 86.0 °F 91.8 °F 71.6 °F 62% 29.92 in 6.2 mi SW 11.5 mph - N/A   Partly Cloudy
6:30 PM 86.0 °F 91.8 °F 71.6 °F 62% 29.92 in 6.2 mi SW 11.5 mph - N/A   Partly Cloudy
7:00 PM 86.0 °F 90.4 °F 69.8 °F 58% 29.92 in 6.2 mi SW 12.7 mph - N/A   Partly Cloudy
7:30 PM 84.2 °F 89.6 °F 71.6 °F 66% 29.92 in 6.2 mi SW 11.5 mph - N/A   Partly Cloudy
8:00 PM 84 °F - 70 °F 54% 29.93 in 16 mi SW 9.2 mph - -   Scattered Clouds
8:00 PM 84.2 °F 88.4 °F 69.8 °F 62% 29.92 in 6.2 mi SW 8.1 mph - N/A   Partly Cloudy
8:30 PM 82.4 °F 87.2 °F 71.6 °F 70% 29.92 in 6.2 mi SW 9.2 mph - N/A   Partly Cloudy
9:00 PM 82.4 °F 88.2 °F 73.4 °F 74% 29.95 in 6.2 mi SSW 8.1 mph - N/A   Partly Cloudy
9:30 PM 82.4 °F 87.2 °F 71.6 °F 70% 29.95 in - SSW 6.9 mph - N/A   Clear
10:00 PM 82.4 °F 88.2 °F 73.4 °F 74% 29.98 in 6.2 mi SSW 6.9 mph - N/A   Partly Cloudy
10:30 PM 82.4 °F 87.2 °F 71.6 °F 70% 29.98 in 6.2 mi SSW 6.9 mph - N/A   Partly Cloudy
11:00 PM 82.4 °F 88.2 °F 73.4 °F 74% 30.01 in 6.2 mi SW 9.2 mph - N/A   Partly Cloudy
11:30 PM 82.4 °F 87.2 °F 71.6 °F 70% 30.01 in 6.2 mi SW 9.2 mph - N/A   Partly Cloudy